Fairbanks Eiels, AK

8:34 AM AKST on December 12, 2019 (GMT -0900)
Eielson Air Force Base

Weather History for PAEI - October, 2019

Change the Weather History Date:

Monday, October 28, 2019

  Actual Average Record
Temperature  
Mean Temperature 40 °F -  
Max Temperature 53 °F 19 °F 58 °F (2013)
Min Temperature 27 °F 1 °F -41 °F (1971)
Degree Days  
Heating Degree Days 24    
Moisture  
Dew Point 33 °F    
Average Humidity 77    
Maximum Humidity 91    
Minimum Humidity 46    
Precipitation  
Precipitation 0.00 in - - ()
Sea Level Pressure  
Sea Level Pressure 29.79 in    
Wind  
Wind Speed 2 mph (West)    
Max Wind Speed 9 mph    
Max Gust Speed -    
Visibility 10 miles    
Events      
Averages and records for this station are not official NWS values.
T = Trace of Precipitation, MM = Missing Value Source: NWS Daily Summary

Daily Weather History Graph

Daily Weather History Graph

Search for Another Location

Airport or City:

Astronomy

Oct. 28, 2019 Rise Set
Actual Time 9:21 AM AKDT 5:41 PM AKDT
Civil Twilight 8:28 AM AKDT 6:34 PM AKDT
Nautical Twilight 7:30 AM AKDT 7:31 PM AKDT
Astronomical Twilight 6:34 AM AKDT 8:27 PM AKDT
Moon 9:53 AM AKDT (10/28) 6:24 PM AKDT (10/28)
Length of Visible Light 10h 05m
Length of Day
8h 19m
New Moon, 1% of the Moon is Illuminated
Oct 28
New Moon
Nov 4
First Quarter
Nov 12
Full
Nov 19
Last Quarter
Nov 26
New

Hourly Weather History & Observations

Time (AKDT) Temp. Windchill Dew Point Humidity Pressure Visibility Wind Dir Wind Speed Gust Speed Precip Events Conditions
12:56 AM 39.2 °F - 32.9 °F 78% 29.92 in 10.0 mi Calm Calm - N/A   Scattered Clouds
1:56 AM 38.5 °F 34.1 °F 32.5 °F 79% 29.93 in 10.0 mi North 5.8 mph - N/A   Mostly Cloudy
2:56 AM 38.3 °F 34.8 °F 32.9 °F 81% 29.92 in 10.0 mi NW 4.6 mph - N/A   Overcast
3:56 AM 35.6 °F - 32.0 °F 87% 29.88 in 10.0 mi Calm Calm - N/A   Overcast
5:56 AM 35.6 °F 31.7 °F 32.4 °F 88% 29.83 in 10.0 mi NNW 4.6 mph - N/A   Overcast
6:56 AM 38.5 °F - 33.4 °F 82% 29.78 in 10.0 mi Calm Calm - N/A   Overcast
7:56 AM 38.8 °F 36.5 °F 33.4 °F 81% 29.75 in 10.0 mi NNW 3.5 mph - N/A   Mostly Cloudy
8:56 AM 41.4 °F 38.4 °F 33.6 °F 74% 29.72 in 10.0 mi SE 4.6 mph - N/A   Mostly Cloudy
9:56 AM 38.8 °F - 33.8 °F 82% 29.71 in 10.0 mi Calm Calm - N/A   Overcast
10:56 AM 36.9 °F - 33.4 °F 87% 29.72 in 10.0 mi Calm Calm - N/A   Overcast
11:56 AM 48.6 °F - 35.8 °F 61% 29.71 in 10.0 mi SSE 8.1 mph - N/A   Overcast
1:56 PM 44.1 °F - 37.0 °F 76% 29.74 in 10.0 mi Calm Calm - N/A   Mostly Cloudy
2:56 PM 44.8 °F 43.3 °F 37.4 °F 75% 29.75 in 9.0 mi South 3.5 mph - N/A   Mostly Cloudy
3:56 PM 47.5 °F - 37.4 °F 68% 29.75 in 10.0 mi South 9.2 mph - N/A   Overcast
4:56 PM 53.1 °F - 32.9 °F 46% 29.75 in 10.0 mi West 6.9 mph - N/A   Clear
5:56 PM 42.6 °F - 34.2 °F 72% 29.78 in 10.0 mi Calm Calm - N/A   Mostly Cloudy
6:56 PM 40.3 °F - 33.1 °F 75% 29.78 in 10.0 mi Calm Calm - N/A   Scattered Clouds
7:56 PM 38.1 °F - 29.5 °F 71% 29.79 in 10.0 mi Calm Calm - N/A   Scattered Clouds
8:56 PM 38.7 °F - 30.4 °F 72% 29.78 in 10.0 mi Calm Calm - N/A   Scattered Clouds
9:56 PM 31.1 °F - 28.2 °F 89% 29.80 in 10.0 mi Calm Calm - N/A   Scattered Clouds
10:56 PM 28.9 °F - 25.9 °F 88% 29.81 in 10.0 mi Calm Calm - N/A   Clear
11:56 PM 27.1 °F - 24.8 °F 91% 29.81 in 10.0 mi Calm Calm - N/A   Clear